Wind_Speed
21 25 27 29 28 27 28 27 23 25 30 34 39 43 49 50 46 48 45 43 35 29 17 9 6 11 8 2 11 13 12 10 21 26 30 35 35 41 47 57 61 64 65 59 52 46 43
23 27 29 30 26 29 30 30 27 25 29 33 38 42 47 50 45 47 45 43 37 27 16 9 6 12 10 1 6 16 14 9 18 26 30 35 33 40 45 56 61 61 59 53 49 46 44
23 27 29 28 28 29 30 32 31 27 28 32 37 40 45 49 45 45 44 45 37 26 14 13 8 10 10 7 6 12 14 10 14 25 26 29 33 35 45 56 59 57 53 51 49 47 44
21 25 30 31 30 29 30 32 33 32 28 32 36 40 44 48 45 43 44 45 37 25 17 15 10 7 4 8 12 9 11 13 18 27 25 22 29 35 47 55 57 52 52 51 49 46 43
20 23 28 32 32 31 29 31 32 34 32 31 36 39 43 47 46 40 45 43 35 28 21 21 19 14 4 8 6 9 11 14 19 25 15 16 26 38 46 51 52 51 51 51 49 46 43
19 23 25 30 32 32 32 30 32 33 35 34 34 38 42 45 48 42 42 40 31 28 28 25 26 19 14 12 9 11 10 10 8 16 18 26 24 34 43 46 49 50 50 49 48 45 44
17 21 24 27 31 32 32 32 31 32 34 36 36 36 39 43 46 44 39 40 33 25 25 26 31 30 32 22 21 15 12 19 21 22 23 17 20 33 40 42 45 46 46 46 46 44 43
17 20 22 24 28 30 31 31 32 31 31 35 36 36 36 39 42 44 38 34 33 31 25 23 26 28 26 28 20 15 16 16 20 17 18 22 22 33 37 41 44 44 43 44 42 43 42
15 18 21 23 26 30 29 28 31 32 31 32 35 35 35 36 39 42 42 34 32 30 31 28 19 18 21 21 20 19 13 15 11 11 11 14 22 35 35 39 41 42 42 39 39 40 39
15 17 19 21 23 28 28 27 27 31 30 30 34 35 35 33 36 38 40 37 32 29 30 30 29 24 17 14 14 17 13 10 14 10 12 20 23 33 34 36 39 38 38 36 36 36 35
15 17 18 19 21 26 28 27 25 27 30 29 31 34 35 32 32 35 36 39 32 30 29 29 28 30 29 21 12 6 8 8 7 12 17 16 24 29 31 34 35 35 33 32 33 33 33
15 15 17 18 20 24 28 27 24 24 26 28 29 32 32 33 30 31 33 36 37 31 28 27 28 28 28 28 23 22 23 20 18 21 21 17 20 24 28 29 27 29 29 28 28 29 30
15 15 16 18 19 22 27 27 24 22 24 25 27 30 30 31 29 27 30 33 35 37 30 28 24 26 26 25 23 24 26 25 25 23 24 22 21 21 24 26 24 24 24 24 24 25 25
16 16 15 16 18 20 24 25 24 23 21 23 25 27 28 28 29 25 25 29 32 35 36 31 27 23 24 24 22 21 22 22 21 20 26 23 20 20 23 23 21 20 20 20 21 22 22
17 16 16 16 17 19 23 23 22 22 21 20 21 23 26 27 27 28 25 25 28 30 32 33 31 27 22 23 23 20 21 23 21 19 23 25 21 20 20 20 20 17 16 15 15 17 19
19 17 17 16 17 19 22 23 21 19 19 17 17 19 22 25 27 27 26 25 24 26 27 28 31 29 25 21 19 21 19 18 20 19 17 24 23 19 19 19 16 15 13 13 11 12 14
19 19 19 17 17 18 22 22 19 16 15 15 13 15 18 20 24 28 29 29 26 23 24 25 25 26 27 25 20 16 18 17 15 16 15 13 20 20 18 17 16 14 10 11 13 14 16
20 20 20 18 18 19 21 21 18 15 12 11 11 12 14 17 18 21 25 28 28 28 25 23 23 24 24 24 24 19 14 12 13 13 14 13 11 10 18 18 17 17 16 14 16 18 15
23 23 23 21 22 22 22 23 20 16 11 10 10 12 13 14 16 17 19 21 24 25 26 27 26 24 22 21 20 20 19 13 8 8 10 10 10 10 11 14 19 20 20 21 22 22 23
29 27 27 25 25 25 26 24 23 19 14 10 9 9 11 14 16 17 17 18 19 20 21 22 23 23 23 22 20 19 18 16 14 9 5 3 5 6 8 12 16 18 22 25 26 29 29
34 33 32 31 30 29 29 27 22 22 19 15 12 10 9 11 13 15 18 18 17 17 17 18 18 20 20 20 20 18 16 14 13 11 8 5 1 4 10 14 17 19 23 26 29 32 32
40 39 38 37 34 31 27 25 24 22 20 19 17 16 15 14 13 14 15 16 18 18 19 19 18 17 16 17 16 15 16 15 12 11 9 7 6 6 6 8 14 18 23 25 28 32 34
48 45 43 41 37 31 25 23 24 22 21 20 19 18 17 18 17 16 16 17 18 18 18 19 19 20 19 19 20 20 17 14 13 13 11 8 7 8 10 13 15 14 20 24 26 29 32
44 43 40 38 35 31 29 26 26 25 24 23 23 23 22 22 21 21 20 21 21 22 21 22 21 20 21 21 21 20 22 21 20 19 17 15 16 16 15 16 16 18 21 25 29 34 37
44 42 39 37 35 32 31 30 30 30 29 29 30 29 28 25 25 26 26 27 27 28 28 28 26 25 24 24 25 24 24 25 27 24 25 26 27 28 28 27 27 25 26 27 29 33 35
45 43 42 42 40 39 36 37 37 36 35 34 34 33 31 30 29 30 31 32 33 33 32 31 31 30 30 30 31 32 32 31 32 30 31 33 35 35 36 38 38 32 34 35 36 41 40
48 48 45 47 45 43 43 43 42 42 42 40 39 39 38 37 37 38 38 37 37 36 36 36 35 35 36 36 37 37 39 39 40 39 37 39 41 40 42 44 44 42 44 44 45 46 47
52 52 48 46 49 49 48 48 47 47 47 47 45 44 44 45 46 44 43 40 39 39 40 39 40 38 41 40 42 42 44 45 47 46 45 43 44 46 47 47 47 47 49 51 53 53 53
56 56 56 53 54 56 54 52 51 51 52 51 51 49 48 47 46 45 44 45 43 42 43 43 44 44 44 44 46 47 47 48 48 50 47 51 49 48 50 52 52 53 56 58 57 55 54
Wind_Direction
18 18 12 9 6 4 5 3 360 359 4 4 7 9 8 5 3 4 0 359 4 0 5 341 349 11 358 258 212 196 196 182 186 188 192 193 187 192 193 190 193 201 205 205 202 198 199
20 18 14 13 9 10 10 8 5 2 6 5 6 10 10 8 9 8 5 6 9 16 14 44 6 7 15 355 199 197 204 201 180 182 187 184 184 190 191 187 191 196 201 200 198 193 197
23 22 18 17 12 10 13 11 10 7 9 7 6 10 11 11 11 11 9 10 7 20 25 35 8 18 38 70 154 179 203 193 178 181 183 179 179 190 190 186 188 191 195 194 194 192 194
19 20 17 16 13 7 12 13 13 13 12 10 8 10 11 13 14 13 13 15 14 25 31 40 38 55 62 68 73 153 186 177 177 178 182 177 189 189 190 185 187 187 190 191 191 191 192
13 15 15 14 11 8 8 11 12 14 16 12 12 11 10 13 17 16 17 21 26 35 37 40 43 38 36 63 115 91 104 151 174 181 172 173 182 185 189 184 185 184 186 188 190 189 191
8 9 10 9 9 8 7 7 10 13 13 14 14 14 12 12 15 19 19 27 33 36 41 44 53 45 47 58 135 117 109 99 169 152 158 175 182 184 186 184 182 182 184 187 189 188 190
359 3 4 5 6 5 4 5 7 11 14 14 15 15 15 13 14 18 21 22 32 36 40 56 67 63 56 73 75 100 125 128 137 131 162 168 180 180 180 181 179 180 183 186 191 188 192
348 355 357 359 2 3 3 3 4 7 11 14 14 14 16 15 15 17 22 24 26 38 44 61 60 53 54 56 82 96 121 127 144 147 147 161 179 176 178 176 176 177 182 186 191 190 192
336 345 350 354 357 1 360 0 3 4 7 13 15 13 16 17 16 18 20 24 28 35 44 47 46 46 55 55 62 69 108 111 134 154 140 163 170 171 172 175 174 175 181 186 191 192 193
322 334 343 348 352 357 359 359 1 4 7 9 14 15 14 18 18 19 21 23 27 33 42 48 49 49 59 71 102 80 65 98 118 119 151 151 158 168 170 173 172 175 181 185 190 193 197
310 322 333 341 347 354 358 360 359 2 6 10 11 15 16 20 18 19 22 26 26 33 42 45 47 51 53 59 78 73 107 119 112 118 121 143 149 159 165 172 174 173 180 185 190 194 198
299 312 322 334 341 350 359 359 359 360 4 9 10 13 15 20 21 21 22 27 29 33 41 43 46 50 58 55 69 71 75 104 120 114 112 125 140 155 160 162 169 173 176 183 189 196 201
290 301 314 326 337 346 355 357 357 358 360 5 8 12 15 20 24 23 25 27 30 35 36 37 44 49 53 62 69 72 71 81 95 104 108 119 134 146 151 151 159 165 174 180 189 197 203
286 291 304 318 328 340 349 354 353 356 359 2 9 14 18 22 25 29 30 33 32 34 39 36 37 44 53 55 72 82 79 75 82 102 105 106 117 134 144 146 155 160 171 187 194 199 205
278 287 298 309 320 333 341 348 347 349 355 359 10 19 24 26 29 32 33 35 38 38 39 43 39 40 44 54 56 71 92 86 84 94 107 105 112 121 130 140 151 156 168 185 198 208 214
276 281 290 302 313 327 335 339 340 344 349 357 12 22 31 36 36 36 38 41 40 41 42 42 47 46 43 45 56 62 75 87 96 92 98 117 117 124 130 132 144 153 166 184 191 207 221
277 280 287 295 305 318 326 331 331 334 343 351 17 26 35 39 42 41 38 39 40 41 42 45 46 49 52 50 49 60 70 77 96 100 104 112 130 127 131 137 143 155 180 200 213 225 232
273 275 279 286 295 304 313 318 317 320 332 350 14 24 32 34 36 36 39 41 41 40 39 40 43 44 49 56 57 56 54 66 78 99 105 126 138 140 156 156 163 175 188 198 220 229 228
266 271 274 281 288 295 305 309 305 302 315 333 357 15 17 21 26 26 31 36 41 42 42 41 39 39 43 42 49 56 62 65 72 92 114 126 135 162 174 186 187 195 203 211 216 221 226
267 266 270 274 279 284 293 296 297 287 287 299 316 345 357 5 11 13 17 22 29 33 38 43 45 45 45 46 43 40 40 47 62 73 90 131 170 193 198 205 212 223 229 231 236 234 241
265 266 268 270 273 277 284 287 282 280 278 281 287 302 322 336 347 355 358 5 12 15 22 30 35 37 36 38 40 40 43 38 30 29 42 55 120 204 227 230 232 236 241 243 244 248 254
263 266 269 270 272 275 273 276 272 268 269 278 284 296 302 309 319 329 337 343 349 357 359 1 6 12 23 22 19 27 27 25 28 25 6 349 336 320 289 256 249 252 256 256 256 259 258
262 263 266 267 270 271 271 268 266 265 272 276 279 283 290 295 300 304 310 318 325 332 335 337 342 345 348 353 355 355 356 358 359 359 357 349 331 314 293 282 275 270 269 270 266 264 266
260 261 263 266 264 262 264 262 261 262 268 273 276 281 284 288 294 300 302 305 308 311 315 316 319 322 326 328 331 331 331 332 331 330 324 324 320 307 299 291 288 284 283 278 273 274 276
258 259 259 259 262 254 256 257 260 263 268 272 274 278 285 290 296 300 302 304 306 305 304 304 306 308 312 313 314 316 315 313 311 312 311 311 310 306 304 296 295 292 286 281 279 277 275
257 257 258 257 256 256 253 254 257 262 268 271 272 275 279 281 285 292 296 299 298 298 298 297 298 300 301 302 303 309 310 304 303 300 300 298 298 296 299 297 296 294 292 290 284 277 278
255 257 257 259 259 258 259 260 261 263 267 268 271 272 272 274 279 285 288 289 291 290 292 292 293 294 296 296 296 298 300 302 301 297 296 294 294 293 291 291 291 291 289 287 283 285 284
254 253 254 253 256 259 262 262 261 264 264 265 266 267 270 274 277 280 282 282 284 285 285 286 287 290 289 291 292 292 294 296 297 296 294 291 290 292 290 288 287 287 285 281 280 280 283
259 257 255 251 256 261 262 261 261 260 262 264 267 266 267 268 271 276 279 282 283 283 285 285 286 286 286 289 289 289 289 290 291 291 291 289 287 287 288 288 286 284 282 282 283 286 285
Height
5820 5816 5812 5808 5803 5798 5791 5786 5780 5774 5768 5761 5753 5743 5731 5719 5705 5695 5683 5671 5660 5652 5645 5639 5638 5636 5632 5631 5633 5634 5637 5638 5639 5645 5651 5659 5667 5676 5684 5696 5711 5726 5739 5755 5771 5782 5792
5819 5816 5811 5807 5802 5796 5791 5785 5779 5773 5767 5759 5751 5742 5731 5719 5706 5695 5683 5671 5660 5652 5647 5642 5640 5637 5634 5633 5632 5634 5637 5640 5642 5646 5652 5658 5667 5676 5683 5694 5708 5722 5737 5753 5767 5778 5787
5819 5815 5811 5807 5801 5796 5791 5785 5779 5773 5766 5759 5752 5742 5732 5720 5707 5696 5685 5673 5661 5655 5650 5645 5642 5639 5636 5633 5632 5635 5638 5641 5644 5648 5652 5659 5666 5675 5683 5692 5705 5720 5736 5749 5763 5773 5783
5819 5815 5811 5806 5802 5797 5792 5786 5780 5773 5766 5759 5752 5743 5733 5722 5710 5699 5689 5677 5665 5658 5653 5648 5644 5640 5638 5637 5636 5636 5638 5642 5645 5650 5655 5662 5667 5674 5682 5692 5704 5720 5733 5747 5761 5771 5781
5818 5815 5811 5807 5802 5797 5792 5787 5781 5775 5767 5760 5752 5744 5735 5724 5713 5703 5692 5681 5672 5663 5657 5653 5648 5643 5640 5639 5640 5642 5644 5646 5648 5652 5658 5662 5668 5674 5682 5693 5706 5718 5733 5746 5759 5769 5778
5818 5815 5811 5807 5802 5797 5793 5787 5782 5776 5769 5761 5753 5745 5736 5726 5716 5706 5696 5687 5678 5670 5663 5658 5653 5650 5646 5644 5643 5647 5649 5651 5653 5658 5662 5667 5671 5677 5685 5696 5709 5721 5733 5746 5758 5768 5776
5817 5814 5811 5807 5803 5797 5792 5788 5782 5776 5770 5763 5755 5747 5739 5729 5720 5710 5700 5692 5688 5679 5672 5664 5660 5655 5652 5649 5648 5651 5652 5654 5659 5664 5668 5671 5676 5681 5690 5701 5712 5724 5735 5747 5758 5767 5775
5816 5814 5811 5807 5803 5798 5793 5787 5782 5777 5771 5765 5758 5749 5742 5733 5724 5715 5706 5699 5692 5686 5678 5672 5667 5663 5660 5657 5656 5656 5659 5662 5663 5667 5669 5674 5678 5685 5694 5704 5714 5725 5736 5747 5758 5766 5774
5815 5813 5811 5807 5803 5798 5793 5788 5783 5778 5772 5766 5760 5752 5745 5738 5730 5721 5712 5705 5698 5691 5684 5679 5674 5670 5667 5664 5662 5662 5663 5664 5667 5670 5673 5677 5682 5688 5698 5707 5717 5726 5737 5748 5759 5765 5772
5813 5811 5809 5807 5803 5798 5793 5789 5784 5779 5773 5768 5762 5755 5748 5741 5735 5726 5719 5711 5704 5697 5691 5686 5682 5678 5673 5670 5671 5669 5669 5670 5672 5674 5677 5680 5686 5693 5702 5711 5719 5729 5738 5748 5757 5764 5771
5810 5809 5808 5805 5802 5798 5793 5789 5785 5780 5775 5770 5765 5758 5751 5743 5738 5731 5725 5717 5710 5704 5699 5695 5689 5684 5680 5677 5677 5675 5674 5675 5677 5679 5683 5687 5690 5698 5707 5715 5724 5732 5741 5750 5758 5765 5771
5807 5807 5806 5804 5801 5797 5793 5789 5785 5781 5777 5772 5767 5761 5754 5747 5741 5736 5729 5722 5717 5711 5705 5701 5697 5692 5687 5685 5683 5683 5681 5680 5681 5684 5686 5693 5698 5705 5712 5719 5728 5735 5743 5751 5759 5766 5772
5804 5803 5803 5802 5800 5797 5793 5789 5785 5781 5778 5773 5769 5763 5757 5750 5745 5739 5734 5728 5724 5716 5712 5709 5704 5701 5696 5692 5690 5689 5689 5688 5689 5692 5695 5700 5706 5712 5718 5724 5732 5739 5746 5753 5761 5767 5773
5800 5800 5799 5799 5797 5795 5792 5788 5785 5782 5778 5774 5770 5765 5761 5754 5748 5743 5738 5733 5728 5722 5717 5713 5710 5707 5705 5702 5699 5697 5697 5697 5698 5699 5702 5708 5714 5718 5724 5730 5737 5744 5750 5756 5762 5768 5774
5796 5796 5796 5796 5795 5793 5791 5788 5784 5781 5778 5774 5771 5767 5763 5757 5752 5747 5743 5737 5732 5727 5724 5719 5716 5714 5712 5710 5709 5706 5704 5705 5706 5708 5711 5715 5720 5725 5729 5735 5741 5747 5753 5759 5764 5769 5774
5792 5792 5793 5793 5792 5791 5789 5788 5785 5781 5778 5774 5771 5768 5765 5760 5756 5751 5746 5740 5737 5733 5729 5725 5721 5718 5717 5716 5716 5715 5714 5714 5715 5716 5718 5721 5726 5730 5734 5739 5745 5750 5756 5761 5764 5769 5773
5788 5788 5789 5789 5789 5788 5787 5785 5784 5781 5778 5774 5771 5769 5766 5763 5759 5756 5752 5746 5741 5738 5734 5731 5727 5724 5722 5720 5720 5720 5722 5722 5722 5723 5725 5727 5730 5735 5739 5742 5747 5752 5756 5760 5764 5768 5770
5783 5783 5783 5784 5784 5783 5783 5782 5781 5779 5777 5774 5771 5769 5767 5764 5762 5759 5755 5751 5747 5743 5740 5737 5734 5731 5729 5727 5725 5724 5725 5726 5727 5728 5730 5733 5735 5737 5740 5744 5748 5751 5754 5757 5760 5764 5766
5777 5777 5778 5779 5779 5779 5778 5778 5777 5776 5775 5773 5770 5768 5767 5765 5763 5760 5757 5754 5751 5748 5745 5742 5740 5737 5735 5734 5732 5730 5730 5730 5730 5732 5734 5737 5739 5741 5744 5747 5748 5750 5752 5754 5755 5758 5760
5770 5771 5771 5772 5773 5773 5772 5773 5772 5772 5772 5771 5769 5767 5765 5764 5763 5761 5759 5757 5754 5751 5749 5746 5744 5742 5741 5739 5738 5736 5736 5736 5735 5736 5737 5739 5740 5743 5745 5746 5748 5749 5750 5751 5752 5753 5755
5762 5763 5764 5764 5765 5765 5766 5766 5767 5767 5766 5767 5766 5764 5763 5762 5761 5760 5759 5757 5756 5754 5752 5750 5747 5745 5744 5743 5742 5741 5740 5739 5739 5739 5739 5741 5742 5742 5743 5744 5745 5747 5747 5747 5747 5747 5747
5752 5754 5755 5757 5758 5758 5759 5759 5759 5760 5761 5762 5762 5762 5760 5759 5759 5758 5756 5755 5754 5753 5752 5750 5750 5749 5747 5745 5744 5743 5743 5743 5743 5742 5742 5742 5741 5742 5743 5743 5743 5744 5743 5743 5743 5742 5742
5741 5743 5745 5747 5749 5750 5751 5752 5753 5754 5755 5756 5757 5757 5756 5755 5754 5754 5753 5753 5752 5750 5750 5749 5748 5746 5746 5745 5744 5743 5742 5742 5742 5743 5742 5742 5741 5741 5740 5738 5738 5740 5738 5736 5736 5735 5734
5729 5733 5735 5738 5740 5742 5744 5745 5746 5747 5749 5749 5750 5751 5751 5751 5749 5749 5749 5748 5747 5747 5747 5745 5745 5743 5743 5742 5741 5741 5740 5740 5739 5738 5738 5738 5738 5737 5737 5735 5736 5735 5733 5732 5730 5727 5724
5718 5722 5725 5727 5730 5732 5735 5737 5739 5740 5741 5742 5743 5743 5743 5744 5743 5742 5742 5742 5742 5742 5741 5740 5740 5739 5738 5737 5736 5736 5736 5736 5734 5734 5733 5731 5730 5729 5729 5727 5727 5727 5726 5724 5722 5718 5715
5705 5709 5713 5716 5719 5723 5724 5726 5729 5731 5732 5733 5734 5734 5735 5736 5736 5735 5734 5734 5734 5733 5734 5733 5732 5732 5731 5730 5729 5729 5728 5727 5727 5728 5728 5725 5722 5720 5719 5716 5715 5716 5713 5711 5709 5704 5704
5694 5697 5701 5703 5706 5710 5713 5715 5717 5719 5721 5722 5724 5724 5725 5725 5726 5726 5726 5725 5724 5724 5724 5724 5723 5722 5721 5721 5720 5720 5718 5718 5716 5716 5717 5715 5713 5710 5707 5704 5703 5702 5699 5696 5693 5695 5690
5680 5684 5689 5692 5693 5696 5699 5703 5705 5707 5709 5710 5711 5712 5714 5714 5714 5715 5715 5714 5714 5714 5713 5712 5713 5712 5710 5710 5709 5708 5706 5707 5706 5705 5704 5701 5699 5698 5696 5692 5690 5689 5685 5681 5679 5676 5675
5663 5668 5673 5678 5681 5683 5685 5688 5691 5694 5695 5697 5699 5699 5700 5700 5702 5702 5702 5703 5703 5702 5702 5701 5701 5699 5698 5698 5697 5695 5694 5691 5691 5690 5690 5688 5686 5683 5683 5679 5675 5671 5665 5662 5661 5661 5659